Regional Weather Roundup
Issued by NWS

Home | Current Version | Previous Version | Graphics & Text | Print | Product List | Glossary On
Versions: 1 2 3 4 5 6 7 8 9 10 11 12 13 14 15 16 17 18 19 20 21 22 23 24 25 26 27 28 29 30 31 32 33 34 35 36 37 38 39 40 41 42 43 44 45 46 47 48 49 50
000
ASUS43 KOAX 040402
RWRNE

WEATHER ROUNDUP FOR NEBRASKA
NATIONAL WEATHER SERVICE OMAHA NE
1000 PM CST SAT DEC 03 2016

NOTES: SATELLITE DATA IS BEING USED TO AUGMENT CLOUD COVER ABOVE
       12000 FEET.
       "FAIR" INDICATES FEW OR NO CLOUDS BELOW 12,000 FEET WITH NO
       SIGNIFICANT WEATHER AND/OR OBSTRUCTIONS TO VISIBILITY.

  * THESE STATIONS DO NOT REPORT WEATHER SUCH AS RAIN...SNOW OR FOG.

NEZ001>004-019>022-054>056-040500-
NEBRASKA PANHANDLE

CITY           SKY/WX    TMP DP  RH WIND       PRES   REMARKS
SCOTTSBLUFF    MOCLDY    26  13  57 NW7       30.01R WCI  18
ALLIANCE       PTCLDY    27  15  61 W12       29.98R WCI  17
CHADRON        CLOUDY    27  17  66 W5        29.97S WCI  22
KIMBALL        MOCLDY    30  18  60 W12       30.02R WCI  20
SIDNEY         PTCLDY    28  15  58 W14       30.02R WCI  17
$$

NEZ057>060-069>072-079>082-040500-
SOUTHWEST NEBRASKA

CITY           SKY/WX    TMP DP  RH WIND       PRES   REMARKS
NORTH PLATTE   PTCLDY    31  28  89 S5        30.00S WCI  26
IMPERIAL       PTCLDY    29  15  56 NW9       30.01S WCI  20
LEXINGTON      CLOUDY    33  31  94 SW8       30.02S WCI  26
MCCOOK         CLOUDY    34  32  92 SW6       30.03R WCI  29
OGALLALA       MOCLDY    32  17  54 SW3       30.00S
$$

NEZ005>010-023>029-035>040-094-040500-
NORTH CENTRAL NEBRASKA

CITY           SKY/WX    TMP DP  RH WIND       PRES   REMARKS
VALENTINE      CLEAR     25  18  74 W3        29.94S
AINSWORTH      CLEAR     28  18  68 W7        29.94F WCI  20
BROKEN BOW     CLOUDY    34  32  92 S9        29.99F WCI  27
O`NEILL        PTCLDY    33  32  95 S10       29.97F WCI  25
ORD            CLOUDY    33  29  85 S8        30.01F WCI  26
THEDFORD       CLOUDY    28  17  62 CALM      29.96F
$$

NEZ041-046>049-061>064-073>077-083>087-040500-
SOUTH CENTRAL NEBRASKA

CITY           SKY/WX    TMP DP  RH WIND       PRES   REMARKS
GRAND ISLAND   CLOUDY    32  32 100 SW10      30.05S WCI  24
AURORA         CLOUDY    32  32 100 S3        30.05S
HASTINGS       CLOUDY    32  31  96 S7        30.05S WCI  26
HEBRON         LGT SNOW  32  32 100 CALM      30.07S
HOLDREGE       CLOUDY    32  31  96 S6        30.02F FOG     WCI  26
KEARNEY *      CLOUDY    32  28  86 SW7       30.03F WCI  26
YORK           CLOUDY    32  32 100 CALM      30.06R FOG
$$

NEZ011>018-030>034-042>045-040500-
NORTHEAST NEBRASKA

CITY           SKY/WX    TMP DP  RH WIND       PRES   REMARKS
NORFOLK        CLOUDY    33  30  88 S8        30.03F WCI  26
ALBION         CLOUDY    32  32  99 S9        30.03S FOG     WCI  24
BLAIR          LGT SNOW  33  33  98 SE6       30.06F WCI  28
FREMONT        LGT SNOW  32  32 100 CALM      30.08S
TEKAMAH        LGT SNOW  32  32 100 CALM      30.09F FOG
WAYNE          CLOUDY    33  33  98 S10       30.04F FOG     WCI  25
$$

NEZ050>053-065>068-078-088>093-040500-
SOUTHEAST NEBRASKA

CITY           SKY/WX    TMP DP  RH WIND       PRES   REMARKS
LINCOLN        LGT SNOW  33  32  96 CALM      30.08F FOG
OMAHA EPPLEY   LGT SNOW  33  29  85 CALM      30.09F VSB 1
BEATRICE       LGT RAIN  34  34  99 SW6       30.07S WCI  29
FALLS CITY     LGT RAIN  38  36  92 SE9       30.09S WCI  31
NEBRASKA CITY  LGT RAIN  36  36 100 S6        30.07S WCI  31
PLATTSMOUTH    MIX PCPN  34  32  92 SE6       30.07F WCI  29
$$

NEZ044-045-051>053-067-040500-
OMAHA AREA

CITY           SKY/WX    TMP DP  RH WIND       PRES   REMARKS
OMAHA EPPLEY   LGT SNOW  33  29  85 CALM      30.09F VSB 1
BLAIR          LGT SNOW  33  33  98 SE6       30.06F WCI  28
FREMONT        LGT SNOW  32  32 100 CALM      30.08S
MILLARD        LGT SNOW  33  32  96 CALM      30.08F
PLATTSMOUTH    MIX PCPN  34  32  92 SE6       30.07F WCI  29
WAHOO          MIX PCPN  32  32  99 CALM      30.07F
$$




USA.gov is the U.S. government's official web portal to all federal, state and local government web resources and services.